Weather History for KDYT - October, 2012

Change the Weather History Date:

Saturday, October 6, 2012

  Actual Average Record
Temperature  
Mean Temperature 40 °F -  
Max Temperature 44 °F 57 °F 88 °F (1961)
Min Temperature 37 °F 39 °F 22 °F (1976)
Degree Days  
Heating Degree Days 24    
Moisture  
Dew Point 27 °F    
Average Humidity 58    
Maximum Humidity 81    
Minimum Humidity 36    
Precipitation  
Precipitation 0.00 in - - ()
Sea Level Pressure  
Sea Level Pressure 30.18 in    
Wind  
Wind Speed 13 mph (NW)    
Max Wind Speed 20 mph    
Max Gust Speed 24 mph    
Visibility 10 miles    
Events      
Averages and records for this station are not official NWS values.
T = Trace of Precipitation, MM = Missing Value Source: NWS Daily Summary

Daily Weather History Graph

Daily Weather History Graph

Search for Another Location

Airport or City:

Trip Planner

Search our weather history database for the weather conditions in past years. The results will help you decide how hot, cold, wet, or windy it might be!

Date:

Astronomy

Oct. 06, 2012 Rise Set
Actual Time 7:14 AM CDT 6:37 PM CDT
Civil Twilight 6:43 AM CDT 7:07 PM CDT
Nautical Twilight 6:08 AM CDT 7:42 PM CDT
Astronomical Twilight 5:33 AM CDT 8:17 PM CDT
Moon 10:36 PM CDT (10/6) 1:25 PM CDT (10/6)
Length of Visible Light 12h 23m
Length of Day
11h 22m
Waning Gibbous, 65% of the Moon is Illuminated
Oct 6
Waning Gibbous
Oct 8
Last Quarter
Oct 15
New
Oct 21
First Quarter
Oct 29
Full

Hourly Weather History & Observations

Time (CDT) Temp. Windchill Dew Point Humidity Pressure Visibility Wind Dir Wind Speed Gust Speed Precip Events Conditions
12:14 AM 37.4 °F 28.2 °F 32.0 °F 81% 30.07 in 10.0 mi NW 16.1 mph 20.7 mph N/A   Overcast
12:33 AM 37.4 °F 28.9 °F 30.2 °F 75% 30.08 in 10.0 mi NW 13.8 mph 19.6 mph N/A   Overcast
12:54 AM 37.4 °F 28.9 °F 32.0 °F 81% 30.08 in 10.0 mi NW 13.8 mph - N/A   Overcast
1:14 AM 37.4 °F 28.5 °F 30.2 °F 75% 30.08 in 10.0 mi NW 15.0 mph - N/A   Scattered Clouds
1:54 AM 37.4 °F 29.8 °F 30.2 °F 75% 30.09 in 10.0 mi NW 11.5 mph 17.3 mph N/A   Scattered Clouds
2:13 AM 37.4 °F 29.3 °F 30.2 °F 75% 30.10 in 10.0 mi NW 12.7 mph - N/A   Mostly Cloudy
2:34 AM 37.4 °F 28.2 °F 30.2 °F 75% 30.10 in 10.0 mi NNW 16.1 mph 20.7 mph N/A   Overcast
2:54 AM 37.4 °F 28.9 °F 30.2 °F 75% 30.10 in 10.0 mi NW 13.8 mph 19.6 mph N/A   Overcast
3:13 AM 37.4 °F 28.5 °F 30.2 °F 75% 30.10 in 10.0 mi NNW 15.0 mph 20.7 mph N/A   Overcast
3:34 AM 37.4 °F 28.5 °F 28.4 °F 70% 30.11 in 10.0 mi NW 15.0 mph 21.9 mph N/A   Overcast
3:54 AM 37.4 °F 28.5 °F 30.2 °F 75% 30.11 in 10.0 mi NW 15.0 mph - N/A   Overcast
4:34 AM 37.4 °F 28.9 °F 28.4 °F 70% 30.12 in 10.0 mi NW 13.8 mph 18.4 mph N/A   Overcast
4:54 AM 37.4 °F 28.9 °F 28.4 °F 70% 30.13 in 10.0 mi NW 13.8 mph - N/A   Overcast
5:13 AM 37.4 °F 28.5 °F 28.4 °F 70% 30.13 in 10.0 mi NW 15.0 mph 23.0 mph N/A   Overcast
5:34 AM 37.4 °F 28.5 °F 28.4 °F 70% 30.14 in 10.0 mi NW 15.0 mph 19.6 mph N/A   Overcast
5:53 AM 37.4 °F 28.9 °F 28.4 °F 70% 30.14 in 10.0 mi NW 13.8 mph - N/A   Overcast
6:14 AM 37.4 °F 28.5 °F 28.4 °F 70% 30.15 in 10.0 mi NW 15.0 mph - N/A   Mostly Cloudy
6:34 AM 37.4 °F 28.9 °F 28.4 °F 70% 30.15 in 10.0 mi NW 13.8 mph 18.4 mph N/A   Scattered Clouds
6:53 AM 37.4 °F 29.3 °F 28.4 °F 70% 30.16 in 10.0 mi NW 12.7 mph - N/A   Scattered Clouds
7:13 AM 37.4 °F 28.9 °F 28.4 °F 70% 30.16 in 10.0 mi NNW 13.8 mph - N/A   Scattered Clouds
7:34 AM 37.4 °F 30.3 °F 28.4 °F 70% 30.17 in 10.0 mi NW 10.4 mph 17.3 mph N/A   Scattered Clouds
7:53 AM 37.4 °F 30.3 °F 28.4 °F 70% 30.18 in 10.0 mi NNW 10.4 mph 18.4 mph N/A   Scattered Clouds
8:13 AM 39.2 °F 31.2 °F 28.4 °F 65% 30.19 in 10.0 mi North 13.8 mph 20.7 mph N/A   Scattered Clouds
8:34 AM 39.2 °F 32.5 °F 26.6 °F 61% 30.20 in 10.0 mi North 10.4 mph - N/A   Mostly Cloudy
8:53 AM 39.2 °F 30.8 °F 28.4 °F 65% 30.20 in 10.0 mi NNW 15.0 mph - N/A   Mostly Cloudy
9:13 AM 39.2 °F 31.2 °F 28.4 °F 65% 30.21 in 10.0 mi North 13.8 mph 24.2 mph N/A   Scattered Clouds
9:34 AM 41.0 °F 32.8 °F 28.4 °F 61% 30.21 in 10.0 mi North 16.1 mph 20.7 mph N/A   Clear
9:53 AM 41.0 °F 32.5 °F 28.4 °F 61% 30.22 in 10.0 mi North 17.3 mph 21.9 mph N/A   Clear
10:13 AM 41.0 °F 31.9 °F 28.4 °F 61% 30.22 in 10.0 mi North 19.6 mph - N/A   Scattered Clouds
10:34 AM 42.8 °F 35.8 °F 28.4 °F 57% 30.23 in 10.0 mi North 13.8 mph 18.4 mph N/A   Scattered Clouds
10:53 AM 42.8 °F 34.8 °F 26.6 °F 53% 30.23 in 10.0 mi North 17.3 mph 23.0 mph N/A   Clear
11:14 AM 44.6 °F 37.8 °F 26.6 °F 49% 30.24 in 10.0 mi NNW 15.0 mph 23.0 mph N/A   Clear
11:34 AM 44.6 °F 37.4 °F 26.6 °F 49% 30.24 in 10.0 mi North 16.1 mph 24.2 mph N/A   Scattered Clouds
11:53 AM 44.6 °F 36.6 °F 26.6 °F 49% 30.23 in 10.0 mi North 19.6 mph - N/A   Mostly Cloudy
12:14 PM 42.8 °F 36.6 °F 24.8 °F 49% 30.24 in 10.0 mi NNW 11.5 mph - N/A   Overcast
12:33 PM 42.8 °F 36.2 °F 26.6 °F 53% 30.24 in 10.0 mi WNW 12.7 mph - N/A   Overcast
12:54 PM 42.8 °F 34.8 °F 26.6 °F 53% 30.25 in 10.0 mi North 17.3 mph 23.0 mph N/A   Overcast
1:13 PM 42.8 °F 39.3 °F 28.4 °F 57% 30.24 in 10.0 mi NNW 5.8 mph - N/A   Overcast
1:34 PM 42.8 °F 38.6 °F 24.8 °F 49% 30.23 in 10.0 mi NW 6.9 mph - N/A   Overcast
1:53 PM 42.8 °F 39.3 °F 21.2 °F 42% 30.22 in 10.0 mi NW 5.8 mph - N/A   Overcast
2:13 PM 42.8 °F 40.1 °F 17.6 °F 36% 30.22 in 10.0 mi NNW 4.6 mph - N/A   Overcast
2:34 PM 44.6 °F 39.7 °F 19.4 °F 37% 30.22 in 10.0 mi NW 9.2 mph - N/A   Overcast
2:53 PM 44.6 °F 38.8 °F 21.2 °F 39% 30.22 in 10.0 mi NW 11.5 mph - N/A   Overcast
3:13 PM 44.6 °F 39.2 °F 21.2 °F 39% 30.21 in 10.0 mi WNW 10.4 mph - N/A   Overcast
3:34 PM 44.6 °F 40.2 °F 23.0 °F 43% 30.21 in 10.0 mi NW 8.1 mph - N/A   Overcast
4:13 PM 44.6 °F 43.1 °F 21.2 °F 39% 30.21 in 10.0 mi NNW 3.5 mph - N/A   Overcast
4:34 PM 44.6 °F 42.2 °F 21.2 °F 39% 30.21 in 10.0 mi NW 4.6 mph - N/A   Overcast
4:53 PM 44.6 °F 42.2 °F 23.0 °F 43% 30.20 in 10.0 mi NW 4.6 mph - N/A   Overcast
5:13 PM 44.6 °F 40.2 °F 21.2 °F 39% 30.20 in 10.0 mi NNW 8.1 mph - N/A   Overcast
5:34 PM 44.6 °F 40.7 °F 23.0 °F 43% 30.19 in 10.0 mi NNW 6.9 mph - N/A   Overcast
5:53 PM 44.6 °F 43.1 °F 23.0 °F 43% 30.19 in 10.0 mi NNW 3.5 mph - N/A   Overcast
6:14 PM 44.6 °F 40.7 °F 23.0 °F 43% 30.19 in 10.0 mi NNW 6.9 mph - N/A   Overcast
6:34 PM 44.6 °F 42.2 °F 23.0 °F 43% 30.19 in 10.0 mi NW 4.6 mph - N/A   Mostly Cloudy
6:53 PM 44.6 °F 41.4 °F 21.2 °F 39% 30.19 in 10.0 mi NW 5.8 mph - N/A   Overcast
7:14 PM 44.6 °F 39.7 °F 24.8 °F 46% 30.19 in 10.0 mi WNW 9.2 mph - N/A   Overcast
7:34 PM 44.6 °F 39.2 °F 26.6 °F 49% 30.20 in 10.0 mi WNW 10.4 mph - N/A   Overcast
7:53 PM 44.6 °F 40.2 °F 26.6 °F 49% 30.20 in 10.0 mi West 8.1 mph - N/A   Overcast
8:14 PM 42.8 °F 38.6 °F 26.6 °F 53% 30.20 in 10.0 mi West 6.9 mph - N/A   Mostly Cloudy
8:34 PM 42.8 °F 37.5 °F 26.6 °F 53% 30.20 in 10.0 mi West 9.2 mph - N/A   Mostly Cloudy
8:53 PM 42.8 °F 38.0 °F 26.6 °F 53% 30.19 in 10.0 mi West 8.1 mph - N/A   Overcast
9:14 PM 41.0 °F 35.8 °F 28.4 °F 61% 30.20 in 10.0 mi West 8.1 mph - N/A   Mostly Cloudy
9:34 PM 41.0 °F 35.8 °F 28.4 °F 61% 30.19 in 10.0 mi West 8.1 mph - N/A   Scattered Clouds
9:53 PM 41.0 °F 35.8 °F 28.4 °F 61% 30.19 in 10.0 mi West 8.1 mph - N/A   Clear
10:13 PM 39.2 °F 33.0 °F 26.6 °F 61% 30.19 in 10.0 mi West 9.2 mph - N/A   Clear
10:34 PM 39.2 °F 32.0 °F 26.6 °F 61% 30.19 in 10.0 mi West 11.5 mph - N/A   Clear
10:53 PM 41.0 °F 33.1 °F 26.6 °F 57% 30.19 in 10.0 mi WNW 15.0 mph - N/A   Clear
11:13 PM 39.2 °F 31.6 °F 26.6 °F 61% 30.18 in 10.0 mi WNW 12.7 mph - N/A   Clear
11:34 PM 39.2 °F 32.0 °F 26.6 °F 61% 30.18 in 10.0 mi West 11.5 mph 17.3 mph N/A   Clear
11:53 PM 39.2 °F 32.0 °F 26.6 °F 61% 30.18 in 10.0 mi West 11.5 mph - N/A   Clear